Flag for U.S.A. Weather past 2 weeks in Warren, Michigan, U.S.A.

Now
32 °F

Sunny.


Feels Like: 27 °F
Forecast: 24 / 34 °F
Wind: 5 mph from Southwest

Location: Detroit City Airport

Current Time: Dec 19, 2014 at 5:07:43 PM

Latest Report: Dec 19, 2014 at 3:53 PM


Visibility: 10 mi

Pressure: 30.28 "Hg

Humidity: 56%

Dew point: 18 °F

Location of WarrenLocation

Historic Weather in Warren — Graph

°F

Warren temperature yesterday

Maximum temperature yesterday: 34 °F (at 12:53 PM)
Minimum temperature yesterday: 31 °F (at 12:53 AM)
Average temperature yesterday: 32 °F

Past Weeks' High & Low Weather Summary

 TemperatureHumidityPressure
High52 °F (Dec 14, 12:53 PM)93% (Dec 16, 9:53 AM)30.73 "Hg (Dec 16, 9:53 AM)
Low23 °F (Dec 11, 3:53 AM)28% (Dec 11, 12:53 PM)29.67 "Hg (Dec 16, 12:53 PM)
Average37 °F70%30.18 "Hg
* Reported Dec 4 3:53 PM — Dec 19 3:53 PM, Warren, Weather by CustomWeather, © 2014

Note: Actual official high and low records may vary slightly from our data, if they occured in-between our weather recording intervals... More about our weather records

Advertising

Warren weather history for previous 24 hours

 ConditionsComfort  
Time TempWeatherWind HumidityBarometerVisibility
3:53 PM
Dec 19
32 °FSunny.5 mph56%30.28 "Hg10 mi
2:53 PM34 °FPartly sunny.No wind54%30.27 "Hg10 mi
1:53 PM32 °FPartly sunny.3 mph56%30.28 "Hg10 mi
12:53 PM32 °FScattered clouds.No wind56%30.29 "Hg10 mi
11:53 AM30 °FPartly sunny.3 mph59%30.29 "Hg10 mi
10:53 AM30 °FOvercast.9 mph61%30.31 "Hg10 mi
9:53 AM29 °FOvercast.6 mph64%30.31 "Hg10 mi
8:53 AM29 °FOvercast.No wind66%30.30 "Hg10 mi
7:53 AM29 °FOvercast.5 mph66%30.28 "Hg10 mi
6:53 AM29 °FOvercast.8 mph66%30.27 "Hg10 mi
5:53 AM29 °FOvercast.9 mph69%30.25 "Hg10 mi
4:53 AM29 °FOvercast.12 mph69%30.24 "Hg10 mi
3:53 AM29 °FOvercast.8 mph69%30.24 "Hg10 mi
2:53 AM29 °FMostly cloudy.8 mph75%30.23 "Hg10 mi
1:53 AM30 °FOvercast.12 mph69%30.22 "Hg10 mi
12:53 AM30 °FMostly cloudy.10 mph75%30.21 "Hg10 mi
11:53 PM
Dec 18
31 °FMostly cloudy.7 mph79%30.22 "Hg10 mi
10:53 PM31 °FMostly cloudy.7 mph82%30.21 "Hg10 mi
9:53 PM33 °FMostly cloudy.3 mph82%30.19 "Hg10 mi
8:53 PM33 °FMostly cloudy.6 mph82%30.19 "Hg10 mi
7:53 PM34 °FMostly cloudy.3 mph76%30.19 "Hg10 mi
6:53 PM34 °FOvercast.3 mph73%30.19 "Hg10 mi
5:53 PM34 °FLight snow. Mostly cloudy.7 mph76%30.19 "Hg4 mi
Weather by CustomWeather, © 2014

See weather overviewHow to use our weather pages